Location: Gwatt
(46.7204°N, 7.6223°E)
Time: 05:49:43
(UTC+00:00)

S-56A Canister/Altair - Pass Details

Date: 22 January 2021
Orbit: 632 x 2501 km, 38.9° (Epoch: 08 March)

Event Time Altitude Azimuth Distance (km) Brightness Sun altitude
Exits shadow 06:12:33 - 257° (WSW) 2,500 9.6 -9.0°
Reaches altitude 10° 06:13:18 10° 253° (WSW) 2,255 9.5 -8.9°
Maximum altitude 06:17:51 31° 191° (SSW) 1,507 9.1 -8.1°
Drops below altitude 10° 06:23:55 10° 132° (SE) 3,048 11.9 -7.1°
Sets 06:27:36 0° 124° (ESE) 4,337 13.4 -6.6°
